Location: *
(43.2048°N, 0.1612°E)
Time: 21:55:26
(UTC+00:00)

USA 215 - Pass Details

Date: 30 September 2023
Orbit: 1098 x 1109 km, 123.0° (Epoch: 17 November)

Event Time Altitude Azimuth Distance (km) Brightness Sun altitude
Rises 02:16:32 0° 103° (ESE) 3,906 6.6 -38.0°
Reaches altitude 10° 02:19:06 10° 98° (E) 2,951 5.9 -37.6°
Maximum altitude 02:25:15 46° 27° (NNE) 1,435 4.0 -36.7°
Enters shadow 02:26:36 41° 355° (N) 1,545 4.1 -36.5°
